Weather History for Toms River, NJ

Change the Weather History Date:

Sunday, December 29, 2013

  Actual Average Record
Temperature  
Mean Temperature 47 °F -  
Max Temperature 57 °F 45 °F 69 °F (1982)
Min Temperature 37 °F 24 °F 5 °F (1989)
Degree Days  
Heating Degree Days 18    
Moisture  
Dew Point 38 °F    
Average Humidity 81    
Maximum Humidity 100    
Minimum Humidity 53    
Precipitation  
Precipitation 1.06 in - - ()
Sea Level Pressure  
Sea Level Pressure 29.81 in    
Wind  
Wind Speed 4 mph (WSW)    
Max Wind Speed 25 mph    
Max Gust Speed 33 mph    
Visibility 8 miles    
Events      
Averages and records for this station are not official NWS values.
T = Trace of Precipitation, MM = Missing Value Source: NWS Daily Summary

Daily Weather History Graph

Daily Weather History Graph

Search for Another Location

Airport:

Trip Planner

Search our weather history database for the weather conditions in past years. The results will help you decide how hot, cold, wet, or windy it might be!

Date:

Astronomy

Dec. 29, 2013 Rise Set
Actual Time 7:18 AM EST 4:40 PM EST
Civil Twilight 6:47 AM EST 5:11 PM EST
Nautical Twilight 6:13 AM EST 5:44 PM EST
Astronomical Twilight 5:40 AM EST 6:17 PM EST
Moon 3:59 AM EST (12/29) 2:16 PM EST (12/29)
Length of Visible Light 10h 23m
Length of Day
9h 22m
Waning Crescent, 11% of the Moon is Illuminated
Dec 29
Waning Crescent
Jan 1
New
Jan 7
First Quarter
Jan 15
Full
Jan 24
Last Quarter

Hourly Weather History & Observations

Time (EST) Temp. Windchill Dew Point Humidity Pressure Visibility Wind Dir Wind Speed Gust Speed Precip Events Conditions
12:15 AM 41.0 °F 39.0 °F 28.4 °F 61% 30.10 in 10.0 mi WSW 3.5 mph - N/A   Clear
12:55 AM 41.0 °F - 28.4 °F 61% 30.10 in 10.0 mi Calm Calm - N/A   Clear
1:15 AM - - - N/A% 30.08 in 10.0 mi Calm Calm - N/A   Clear
1:35 AM 37.4 °F - 26.6 °F 65% 30.09 in 10.0 mi Calm Calm - N/A   Clear
1:55 AM - - - N/A% 30.10 in 10.0 mi Calm Calm - N/A   Clear
2:15 AM 39.2 °F - 28.4 °F 65% 30.10 in 10.0 mi Calm Calm - N/A   Clear
2:35 AM 39.2 °F - 28.4 °F 65% 30.09 in 10.0 mi Calm Calm - N/A   Clear
2:55 AM 39.2 °F - 28.4 °F 65% 30.08 in 10.0 mi Calm Calm - N/A   Clear
3:15 AM 39.2 °F - 28.4 °F 65% 30.07 in 10.0 mi Calm Calm - N/A   Clear
3:35 AM 39.2 °F - 28.4 °F 65% 30.07 in 10.0 mi Calm Calm - N/A   Clear
3:55 AM 39.2 °F - 28.4 °F 65% 30.06 in 10.0 mi Calm Calm - N/A   Clear
4:15 AM 41.0 °F 39.0 °F 28.4 °F 61% 30.07 in 10.0 mi SW 3.5 mph - N/A   Clear
4:35 AM 41.0 °F - 28.4 °F 61% 30.06 in 10.0 mi Calm Calm - N/A   Clear
4:55 AM 41.0 °F - 28.4 °F 61% 30.05 in 10.0 mi Calm Calm - N/A   Clear
5:15 AM 42.8 °F - 28.4 °F 57% 30.04 in 10.0 mi Calm Calm - N/A   Clear
5:35 AM 42.8 °F - 28.4 °F 57% 30.03 in 10.0 mi Calm Calm - N/A   Clear
5:55 AM 42.8 °F - 28.4 °F 57% 30.03 in 10.0 mi Calm Calm - N/A   Clear
6:15 AM 42.8 °F - 28.4 °F 57% 30.04 in 10.0 mi Calm Calm - N/A   Mostly Cloudy
6:35 AM 42.8 °F - 28.4 °F 57% 30.04 in 10.0 mi Calm Calm - N/A   Overcast
6:55 AM 42.8 °F - 28.4 °F 57% 30.04 in 10.0 mi Calm Calm - N/A   Overcast
7:15 AM 42.8 °F 41.1 °F 28.4 °F 57% 30.04 in 10.0 mi SW 3.5 mph - N/A   Overcast
7:35 AM 44.6 °F 42.2 °F 28.4 °F 53% 30.03 in 10.0 mi SW 4.6 mph - N/A   Overcast
7:55 AM 44.6 °F 40.7 °F 28.4 °F 53% 30.04 in 10.0 mi SW 6.9 mph - N/A   Overcast
8:15 AM 42.8 °F 40.1 °F 33.8 °F 70% 30.05 in 10.0 mi SW 4.6 mph - 0.01 in   Overcast
8:35 AM 41.0 °F - 35.6 °F 81% 30.05 in 10.0 mi Calm Calm - 0.02 in   Overcast
8:55 AM 41.0 °F - 37.4 °F 87% 30.04 in 8.0 mi Calm Calm - 0.04 in   Overcast
9:15 AM 41.0 °F - 37.4 °F 87% 30.03 in 8.0 mi Calm Calm - 0.03 in   Overcast
9:35 AM 41.0 °F - 39.2 °F 93% 30.02 in 8.0 mi Calm Calm - 0.05 in   Overcast
9:55 AM 41.0 °F - 39.2 °F 93% 29.99 in 5.0 mi Calm Calm - 0.09 in   Overcast
10:15 AM 41.0 °F - 39.2 °F 93% 29.96 in 9.0 mi Calm Calm - 0.02 in   Overcast
10:35 AM 41.0 °F - 39.2 °F 93% 29.93 in 10.0 mi Calm Calm - 0.03 in   Overcast
10:55 AM 41.0 °F - 39.2 °F 93% 29.91 in 6.0 mi Calm Calm - 0.05 in   Overcast
11:15 AM 42.8 °F - 39.2 °F 87% 29.89 in 7.0 mi Calm Calm - 0.02 in   Mostly Cloudy
11:35 AM 42.8 °F - 39.2 °F 87% 29.86 in 5.0 mi Calm Calm - 0.04 in   Overcast
11:55 AM 42.8 °F - 41.0 °F 93% 29.84 in 2.5 mi Calm Calm - 0.07 in   Overcast
12:15 PM 42.8 °F 41.1 °F 41.0 °F 93% 29.82 in 2.5 mi East 3.5 mph - 0.03 in   Overcast
12:35 PM 42.8 °F 41.1 °F 41.0 °F 93% 29.78 in 4.0 mi ENE 3.5 mph - 0.08 in   Overcast
12:55 PM 42.8 °F 40.1 °F 42.8 °F 100% 29.75 in 4.0 mi East 4.6 mph - 0.11 in   Overcast
1:15 PM 44.6 °F 40.7 °F 42.8 °F 93% 29.72 in 4.0 mi East 6.9 mph - 0.05 in   Overcast
1:35 PM 44.6 °F 41.4 °F 44.6 °F 100% 29.68 in 5.0 mi ESE 5.8 mph - 0.10 in   Overcast
1:55 PM 46.4 °F 42.4 °F 44.6 °F 93% 29.64 in 5.0 mi ESE 8.1 mph 23.0 mph 0.15 in   Overcast
2:15 PM 46.4 °F 43.5 °F 44.6 °F 93% 29.60 in 4.0 mi ESE 5.8 mph - 0.12 in   Overcast
2:35 PM 46.4 °F 42.4 °F 44.6 °F 93% 29.57 in 5.0 mi ESE 8.1 mph - 0.22 in   Overcast
2:55 PM 48.2 °F - 46.4 °F 93% 29.54 in 5.0 mi ESE 6.9 mph - 0.31 in   Overcast
3:15 PM 48.2 °F - 46.4 °F 93% 29.51 in 4.0 mi ESE 6.9 mph - 0.10 in   Overcast
3:35 PM 48.2 °F - 48.2 °F 100% 29.48 in 4.0 mi ESE 4.6 mph - 0.16 in   Overcast
3:55 PM 50.0 °F - 48.2 °F 94% 29.45 in 3.0 mi Calm Calm - 0.20 in   Overcast
4:15 PM 55.4 °F - 53.6 °F 94% 29.42 in 5.0 mi SSW 17.3 mph 32.2 mph 0.02 in   Overcast
4:35 PM 57.2 °F - 57.2 °F 100% 29.43 in 3.0 mi SSW 20.7 mph 31.1 mph 0.03 in   Overcast
4:55 PM 57.2 °F - 55.4 °F 94% 29.42 in 5.0 mi SW 15.0 mph 23.0 mph 0.03 in   Overcast
5:15 PM 55.4 °F - 53.6 °F 94% 29.41 in 10.0 mi WSW 15.0 mph 19.6 mph 0.01 in   Overcast
5:35 PM 55.4 °F - 53.6 °F 94% 29.41 in 10.0 mi WSW 13.8 mph 26.5 mph 0.01 in   Overcast
5:55 PM 55.4 °F - 51.8 °F 88% 29.43 in 10.0 mi West 19.6 mph 26.5 mph 0.01 in   Overcast
6:15 PM 53.6 °F - 48.2 °F 82% 29.45 in 10.0 mi West 18.4 mph 29.9 mph N/A   Overcast
6:35 PM 51.8 °F - 48.2 °F 88% 29.46 in 10.0 mi West 12.7 mph 29.9 mph N/A   Overcast
6:55 PM 51.8 °F - 48.2 °F 88% 29.49 in 10.0 mi West 16.1 mph 21.9 mph N/A   Overcast
7:15 PM 50.0 °F - 46.4 °F 87% 29.50 in 10.0 mi West 25.3 mph 31.1 mph N/A   Overcast
7:35 PM 48.2 °F - 42.8 °F 82% 29.53 in 10.0 mi West 13.8 mph 33.4 mph N/A   Overcast
7:55 PM 46.4 °F 39.8 °F 42.8 °F 87% 29.55 in 10.0 mi WNW 16.1 mph 27.6 mph N/A   Overcast
8:15 PM 44.6 °F 36.6 °F 41.0 °F 87% 29.58 in 10.0 mi WNW 19.6 mph 26.5 mph N/A   Overcast
8:35 PM 42.8 °F 34.8 °F 39.2 °F 87% 29.62 in 10.0 mi WNW 17.3 mph 28.8 mph N/A   Overcast
8:55 PM 42.8 °F 36.6 °F 39.2 °F 87% 29.64 in 10.0 mi WNW 11.5 mph 25.3 mph N/A   Overcast
9:15 PM 42.8 °F 38.6 °F 37.4 °F 81% 29.65 in 10.0 mi NW 6.9 mph - N/A   Mostly Cloudy
9:35 PM 42.8 °F 38.0 °F 37.4 °F 81% 29.67 in 10.0 mi WNW 8.1 mph - N/A   Mostly Cloudy
9:55 PM 42.8 °F 41.1 °F 37.4 °F 81% 29.67 in 10.0 mi WNW 3.5 mph - N/A   Mostly Cloudy
10:15 PM 41.0 °F 38.0 °F 37.4 °F 87% 29.69 in 10.0 mi West 4.6 mph - N/A   Clear
10:35 PM 41.0 °F 38.0 °F 37.4 °F 87% 29.71 in 10.0 mi West 4.6 mph - N/A   Clear
10:55 PM 41.0 °F 38.0 °F 37.4 °F 87% 29.72 in 10.0 mi WNW 4.6 mph - N/A   Clear
11:15 PM 41.0 °F 38.0 °F 37.4 °F 87% 29.73 in 10.0 mi West 4.6 mph - N/A   Clear
11:35 PM 41.0 °F 37.1 °F 37.4 °F 87% 29.74 in 10.0 mi West 5.8 mph - N/A   Clear
11:55 PM 41.0 °F 38.0 °F 37.4 °F 87% 29.74 in 10.0 mi West 4.6 mph - N/A   Clear